• In Deutschland
  • Länderverzeichnis
  • Für 7 Tage
  • Wassertemperatur
  • Satellitenkarten
  • Wetterkarte
  • Widgets
  • user-avatar
    Anmelden

    Stündliche Wetter La Rioja

    Heute, 23 Juni, Freitag

    Zeit Temperatur Niederschläge Wind Luftdruck Luftfeuchtigkeit
    00:00 +15°C° 0 mm 1 m/S 708 mmHg 56%
    01:00 +14°C° 0 mm 1 m/S 708 mmHg 56%
    02:00 +14°C° 0 mm 1 m/S 708 mmHg 57%
    03:00 +14°C° 0 mm 1 m/S 708 mmHg 57%
    04:00 +13°C° 0 mm 1 m/S 708 mmHg 57%
    05:00 +13°C° 0 mm 1 m/S 708 mmHg 57%
    06:00 +13°C° 0 mm 1 m/S 708 mmHg 57%
    07:00 +13°C° 0 mm 1 m/S 709 mmHg 58%
    08:00 +13°C° 0 mm 1 m/S 709 mmHg 58%
    09:00 +16°C° 0 mm 1 m/S 710 mmHg 50%
    10:00 +19°C° 0 mm 2 m/S 710 mmHg 43%
    11:00 +23°C° 0 mm 2 m/S 711 mmHg 36%
    12:00 +24°C° 0 mm 2 m/S 711 mmHg 35%
    13:00 +25°C° 0 mm 2 m/S 711 mmHg 33%
    14:00 +26°C° 0 mm 3 m/S 710 mmHg 32%
    15:00 +25°C° 0 mm 2 m/S 710 mmHg 37%
    16:00 +23°C° 0 mm 2 m/S 710 mmHg 41%
    17:00 +21°C° 0 mm 2 m/S 710 mmHg 46%
    18:00 +20°C° 0 mm 1 m/S 711 mmHg 53%
    19:00 +19°C° 0 mm 1 m/S 711 mmHg 60%
    20:00 +16°C° 0 mm 1 m/S 711 mmHg 67%
    21:00 +16°C° 0 mm 1 m/S 712 mmHg 67%
    22:00 +15°C° 0 mm 1 m/S 712 mmHg 67%
    23:00 +15°C° 0 mm 2 m/S 713 mmHg 67%

    Morgen, 24 Juni, Samstag

    Zeit Temperatur Niederschläge Wind Luftdruck Luftfeuchtigkeit
    00:00 +15°C° 0 mm 2 m/S 712 mmHg 67%
    01:00 +14°C° 0 mm 2 m/S 712 mmHg 67%
    02:00 +14°C° 0 mm 2 m/S 712 mmHg 67%
    03:00 +14°C° 0 mm 2 m/S 712 mmHg 68%
    04:00 +14°C° 0 mm 2 m/S 712 mmHg 69%
    05:00 +13°C° 0 mm 2 m/S 712 mmHg 70%
    06:00 +13°C° 0 mm 2 m/S 712 mmHg 71%
    07:00 +13°C° 0 mm 2 m/S 712 mmHg 71%
    08:00 +13°C° 0 mm 2 m/S 712 mmHg 71%
    09:00 +16°C° 0 mm 2 m/S 712 mmHg 65%
    10:00 +18°C° 0 mm 2 m/S 712 mmHg 58%
    11:00 +21°C° 0 mm 2 m/S 713 mmHg 51%
    12:00 +23°C° 0 mm 2 m/S 712 mmHg 49%
    13:00 +24°C° 0 mm 3 m/S 711 mmHg 46%
    14:00 +25°C° 0 mm 3 m/S 710 mmHg 43%
    15:00 +24°C° 0 mm 3 m/S 709 mmHg 47%
    16:00 +23°C° 0 mm 2 m/S 709 mmHg 51%
    17:00 +21°C° 0 mm 2 m/S 709 mmHg 55%
    18:00 +20°C° 0 mm 2 m/S 709 mmHg 58%
    19:00 +19°C° 0 mm 2 m/S 709 mmHg 61%
    20:00 +18°C° 0 mm 2 m/S 709 mmHg 64%
    21:00 +17°C° 0 mm 2 m/S 709 mmHg 65%
    22:00 +17°C° 0 mm 2 m/S 709 mmHg 66%
    23:00 +18°C° 0 mm 1 m/S 709 mmHg 67%

    übermorgen, 25 Juni, Sonntag

    Zeit Temperatur Niederschläge Wind Luftdruck Luftfeuchtigkeit
    00:00 +16°C° 0 mm 1 m/S 709 mmHg 67%
    01:00 +16°C° 0 mm 2 m/S 708 mmHg 67%
    02:00 +16°C° 0 mm 2 m/S 708 mmHg 67%
    03:00 +16°C° 0 mm 2 m/S 708 mmHg 67%
    04:00 +15°C° 0 mm 2 m/S 707 mmHg 67%
    05:00 +15°C° 0 mm 2 m/S 707 mmHg 66%
    06:00 +15°C° 0 mm 2 m/S 707 mmHg 66%
    07:00 +15°C° 0 mm 2 m/S 708 mmHg 65%
    08:00 +16°C° 0 mm 2 m/S 708 mmHg 64%
    09:00 +18°C° 0 mm 2 m/S 708 mmHg 57%
    10:00 +21°C° 0 mm 2 m/S 709 mmHg 51%
    11:00 +25°C° 0 mm 2 m/S 709 mmHg 44%
    12:00 +26°C° 0 mm 2 m/S 708 mmHg 42%
    13:00 +27°C° 0 mm 2 m/S 708 mmHg 40%
    14:00 +28°C° 0 mm 3 m/S 707 mmHg 38%
    15:00 +27°C° 0 mm 2 m/S 707 mmHg 43%
    16:00 +26°C° 0 mm 2 m/S 707 mmHg 47%
    17:00 +24°C° 0 mm 1 m/S 706 mmHg 51%
    18:00 +23°C° 0 mm 1 m/S 707 mmHg 55%
    19:00 +21°C° 0 mm 2 m/S 707 mmHg 58%
    20:00 +20°C° 0 mm 2 m/S 708 mmHg 62%
    21:00 +19°C° 0 mm 2 m/S 708 mmHg 62%
    22:00 +19°C° 0 mm 2 m/S 708 mmHg 62%
    23:00 +19°C° 0 mm 2 m/S 708 mmHg 62%

    26 Juni, Montag

    Zeit Temperatur Niederschläge Wind Luftdruck Luftfeuchtigkeit
    00:00 +18°C° 0 mm 2 m/S 708 mmHg 62%
    01:00 +18°C° 0 mm 2 m/S 707 mmHg 62%
    02:00 +18°C° 0 mm 2 m/S 707 mmHg 62%
    03:00 +18°C° 0 mm 2 m/S 707 mmHg 62%
    04:00 +17°C° 0 mm 2 m/S 707 mmHg 63%
    05:00 +17°C° 0 mm 2 m/S 707 mmHg 64%
    06:00 +17°C° 0 mm 2 m/S 707 mmHg 65%
    07:00 +17°C° 0 mm 2 m/S 707 mmHg 66%
    08:00 +17°C° 0 mm 2 m/S 708 mmHg 66%
    09:00 +19°C° 0 mm 3 m/S 708 mmHg 62%
    10:00 +22°C° 0 mm 4 m/S 708 mmHg 57%
    11:00 +25°C° 0 mm 4 m/S 709 mmHg 52%
    12:00 +25°C° 0 mm 5 m/S 708 mmHg 50%
    13:00 +26°C° 0 mm 5 m/S 707 mmHg 48%
    14:00 +27°C° 0 mm 6 m/S 706 mmHg 45%
    15:00 +26°C° 0 mm 6 m/S 707 mmHg 49%
    16:00 +24°C° 0 mm 6 m/S 707 mmHg 52%
    17:00 +23°C° 0 mm 6 m/S 707 mmHg 55%
    18:00 +21°C° 0,3 mm 6 m/S 708 mmHg 60%
    19:00 +20°C° 0,3 mm 5 m/S 708 mmHg 65%
    20:00 +19°C° 0,3 mm 4 m/S 709 mmHg 70%
    21:00 +18°C° 0,2 mm 4 m/S 709 mmHg 71%
    22:00 +18°C° 0,2 mm 3 m/S 710 mmHg 72%
    23:00 +17°C° 0,2 mm 3 m/S 710 mmHg 73%

    27 Juni, Dienstag

    Zeit Temperatur Niederschläge Wind Luftdruck Luftfeuchtigkeit
    00:00 +17°C° 0 mm 3 m/S 710 mmHg 73%
    01:00 +16°C° 0 mm 3 m/S 710 mmHg 74%
    02:00 +16°C° 0 mm 3 m/S 710 mmHg 75%
    03:00 +14°C° 0 mm 3 m/S 710 mmHg 75%
    04:00 +14°C° 0 mm 3 m/S 711 mmHg 76%
    05:00 +13°C° 0 mm 3 m/S 711 mmHg 76%
    06:00 +13°C° 0 mm 3 m/S 712 mmHg 75%
    07:00 +13°C° 0 mm 3 m/S 713 mmHg 74%
    08:00 +13°C° 0 mm 3 m/S 713 mmHg 74%
    09:00 +16°C° 0 mm 3 m/S 714 mmHg 66%
    10:00 +17°C° 0 mm 3 m/S 714 mmHg 57%
    11:00 +19°C° 0 mm 4 m/S 715 mmHg 49%
    12:00 +20°C° 0 mm 4 m/S 714 mmHg 46%
    13:00 +21°C° 0 mm 4 m/S 714 mmHg 44%
    14:00 +21°C° 0 mm 5 m/S 713 mmHg 41%
    15:00 +21°C° 0 mm 5 m/S 714 mmHg 44%
    16:00 +20°C° 0 mm 4 m/S 714 mmHg 47%
    17:00 +19°C° 0 mm 4 m/S 714 mmHg 50%
    18:00 +18°C° 0 mm 4 m/S 715 mmHg 56%
    19:00 +17°C° 0 mm 3 m/S 716 mmHg 61%
    20:00 +14°C° 0 mm 3 m/S 717 mmHg 67%
    21:00 +14°C° 0 mm 3 m/S 717 mmHg 68%
    22:00 +13°C° 0 mm 3 m/S 718 mmHg 70%
    23:00 +13°C° 0 mm 3 m/S 718 mmHg 72%

    28 Juni, Mittwoch

    Zeit Temperatur Niederschläge Wind Luftdruck Luftfeuchtigkeit
    00:00 +13°C° 0 mm 2 m/S 718 mmHg 73%
    01:00 +13°C° 0 mm 2 m/S 718 mmHg 74%
    02:00 +12°C° 0 mm 2 m/S 718 mmHg 75%
    03:00 +12°C° 0 mm 2 m/S 718 mmHg 75%
    04:00 +10°C° 0 mm 2 m/S 717 mmHg 76%
    05:00 +10°C° 0 mm 2 m/S 717 mmHg 76%
    06:00 +10°C° 0 mm 2 m/S 718 mmHg 75%
    07:00 +10°C° 0 mm 2 m/S 718 mmHg 73%
    08:00 +10°C° 0 mm 2 m/S 718 mmHg 72%
    09:00 +13°C° 0 mm 2 m/S 718 mmHg 64%
    10:00 +15°C° 0 mm 2 m/S 718 mmHg 56%
    11:00 +17°C° 0 mm 2 m/S 719 mmHg 47%
    12:00 +17°C° 0 mm 2 m/S 718 mmHg 45%
    13:00 +18°C° 0 mm 2 m/S 717 mmHg 42%
    14:00 +19°C° 0 mm 2 m/S 717 mmHg 40%
    15:00 +18°C° 0 mm 2 m/S 717 mmHg 41%
    16:00 +18°C° 0 mm 2 m/S 717 mmHg 43%
    17:00 +17°C° 0 mm 2 m/S 717 mmHg 44%
    18:00 +16°C° 0 mm 2 m/S 717 mmHg 50%
    19:00 +15°C° 0 mm 1 m/S 718 mmHg 55%
    20:00 +13°C° 0 mm 1 m/S 718 mmHg 61%
    21:00 +13°C° 0 mm 1 m/S 718 mmHg 63%
    22:00 +12°C° 0 mm 1 m/S 719 mmHg 65%
    23:00 +12°C° 0 mm 1 m/S 719 mmHg 67%
    Mehr zeigen